TimeMST,TemperatureF,Dew PointF,Humidity,Sea Level PressureIn,VisibilityMPH,Wind Direction,Wind SpeedMPH,Gust SpeedMPH,PrecipitationIn,Events,Conditions,WindDirDegrees,DateUTC
12:15 AM,59.0,44.6,59,29.62,10.0,SE,9.2,16.1,N/A,,Overcast,140,2012-11-29 07:15:00
12:35 AM,57.2,44.6,63,29.62,10.0,SSE,12.7,18.4,N/A,,Scattered Clouds,150,2012-11-29 07:35:00
12:55 AM,59.0,42.8,55,29.61,10.0,SE,11.5,17.3,N/A,,Clear,140,2012-11-29 07:55:00
1:15 AM,59.0,42.8,55,29.61,10.0,SSE,12.7,18.4,N/A,,Clear,150,2012-11-29 08:15:00
1:35 AM,59.0,42.8,55,29.61,10.0,SSE,8.1,18.4,N/A,,Mostly Cloudy,150,2012-11-29 08:35:00
1:55 AM,59.0,42.8,55,29.60,10.0,SE,11.5,18.4,N/A,,Overcast,140,2012-11-29 08:55:00
2:15 AM,59.0,42.8,55,29.60,10.0,SE,10.4,-,N/A,,Overcast,130,2012-11-29 09:15:00
2:35 AM,59.0,42.8,55,29.58,10.0,ESE,9.2,16.1,N/A,,Overcast,120,2012-11-29 09:35:00
2:55 AM,60.8,42.8,52,29.58,10.0,SSE,6.9,-,N/A,,Overcast,150,2012-11-29 09:55:00
3:15 AM,60.8,42.8,52,29.57,10.0,SSE,10.4,19.6,N/A,,Overcast,150,2012-11-29 10:15:00
3:35 AM,60.8,41.0,48,29.57,10.0,SE,11.5,19.6,N/A,,Overcast,140,2012-11-29 10:35:00
3:55 AM,60.8,41.0,48,29.56,10.0,SE,15.0,21.9,N/A,,Overcast,130,2012-11-29 10:55:00
4:15 AM,60.8,41.0,48,29.54,10.0,SE,13.8,21.9,N/A,,Mostly Cloudy,130,2012-11-29 11:15:00
4:35 AM,60.8,41.0,48,29.53,10.0,SE,15.0,21.9,N/A,,Mostly Cloudy,140,2012-11-29 11:35:00
4:55 AM,60.8,41.0,48,29.52,10.0,SE,12.7,17.3,N/A,Rain,Light Rain,130,2012-11-29 11:55:00
5:15 AM,59.0,42.8,55,29.53,10.0,SSE,9.2,16.1,N/A,,Light Drizzle,150,2012-11-29 12:15:00
5:35 AM,57.2,44.6,63,29.53,10.0,SSE,5.8,-,0.01,Rain,Rain,160,2012-11-29 12:35:00
5:55 AM,55.4,46.4,72,29.54,10.0,South,4.6,-,0.02,Rain,Rain,170,2012-11-29 12:55:00
6:15 AM,55.4,48.2,77,29.53,10.0,Calm,Calm,-,0.01,Rain,Light Rain,0,2012-11-29 13:15:00
6:35 AM,53.6,46.4,77,29.53,10.0,SSE,8.1,-,0.02,Rain,Light Rain,150,2012-11-29 13:35:00
6:55 AM,55.4,46.4,72,29.54,10.0,South,6.9,16.1,0.02,Rain,Light Rain,180,2012-11-29 13:55:00
7:15 AM,53.6,48.2,82,29.54,7.0,SSE,10.4,16.1,0.03,Rain,Rain,150,2012-11-29 14:15:00
7:35 AM,53.6,48.2,82,29.55,10.0,SE,10.4,-,0.04,Rain,Light Rain,140,2012-11-29 14:35:00
7:55 AM,53.6,48.2,82,29.55,7.0,SSE,5.8,-,0.10,Rain,Rain,150,2012-11-29 14:55:00
8:15 AM,51.8,48.2,88,29.55,10.0,SSW,3.5,-,N/A,Rain,Light Rain,210,2012-11-29 15:15:00
8:35 AM,51.8,48.2,88,29.56,7.0,South,3.5,-,0.01,Rain,Light Rain,180,2012-11-29 15:35:00
8:55 AM,51.8,48.2,88,29.57,5.0,SE,4.6,-,0.01,,Light Drizzle,130,2012-11-29 15:55:00
9:15 AM,51.8,48.2,88,29.57,10.0,Calm,Calm,-,N/A,,Overcast,0,2012-11-29 16:15:00
9:35 AM,51.8,48.2,88,29.57,5.0,ESE,3.5,-,N/A,,Overcast,120,2012-11-29 16:35:00
9:55 AM,51.8,48.2,88,29.58,5.0,SSE,3.5,-,0.01,Rain,Light Rain,150,2012-11-29 16:55:00
10:15 AM,53.6,50.0,88,29.58,4.0,SE,3.5,-,N/A,Rain,Light Rain,130,2012-11-29 17:15:00
10:35 AM,53.6,50.0,88,29.59,5.0,SE,5.8,-,0.01,Rain,Light Rain,130,2012-11-29 17:35:00
10:55 AM,53.6,50.0,88,29.58,10.0,East,4.6,-,0.01,,Overcast,100,2012-11-29 17:55:00
11:15 AM,55.4,50.0,82,29.59,7.0,Calm,Calm,-,N/A,Rain,Rain,0,2012-11-29 18:15:00
11:35 AM,55.4,50.0,82,29.59,2.5,South,3.5,-,0.01,,Drizzle,180,2012-11-29 18:35:00
11:55 AM,55.4,50.0,82,29.60,7.0,SSE,5.8,-,0.01,Rain,Light Rain,160,2012-11-29 18:55:00
12:15 PM,53.6,50.0,88,29.60,3.0,SE,5.8,-,N/A,,Drizzle,130,2012-11-29 19:15:00
12:35 PM,55.4,50.0,82,29.59,10.0,East,6.9,-,N/A,,Overcast,90,2012-11-29 19:35:00
12:55 PM,55.4,48.2,77,29.58,10.0,SE,6.9,-,N/A,,Overcast,140,2012-11-29 19:55:00
1:35 PM,57.2,48.2,72,29.56,10.0,SSE,9.2,-,N/A,,Mostly Cloudy,150,2012-11-29 20:35:00
1:55 PM,57.2,48.2,72,29.56,10.0,SSE,8.1,-,N/A,,Overcast,160,2012-11-29 20:55:00
2:15 PM,57.2,48.2,72,29.56,10.0,SSE,9.2,-,N/A,,Overcast,150,2012-11-29 21:15:00
2:35 PM,57.2,48.2,72,29.55,10.0,SE,9.2,-,N/A,,Overcast,140,2012-11-29 21:35:00
2:55 PM,57.2,48.2,72,29.54,10.0,SE,9.2,18.4,N/A,,Overcast,140,2012-11-29 21:55:00
3:15 PM,57.2,48.2,72,29.54,7.0,SE,9.2,-,N/A,,Overcast,140,2012-11-29 22:15:00
3:35 PM,57.2,48.2,72,29.53,10.0,SE,6.9,-,N/A,,Overcast,130,2012-11-29 22:35:00
3:55 PM,57.2,48.2,72,29.53,10.0,ESE,6.9,-,N/A,Rain,Light Rain,110,2012-11-29 22:55:00
4:15 PM,55.4,48.2,77,29.52,10.0,SE,4.6,-,N/A,,Overcast,140,2012-11-29 23:15:00
4:35 PM,57.2,46.4,67,29.52,10.0,SE,9.2,16.1,N/A,,Overcast,140,2012-11-29 23:35:00
4:55 PM,55.4,46.4,72,29.52,10.0,SSE,11.5,17.3,N/A,Rain,Rain,160,2012-11-29 23:55:00
5:35 PM,53.6,48.2,82,29.52,7.0,SE,3.5,-,0.04,,Light Drizzle,130,2012-11-30 00:35:00
5:55 PM,51.8,48.2,88,29.51,10.0,Calm,Calm,-,0.04,,Overcast,0,2012-11-30 00:55:00
6:15 PM,53.6,48.2,82,29.49,10.0,ENE,4.6,-,N/A,,Light Drizzle,60,2012-11-30 01:15:00
6:35 PM,51.8,48.2,88,29.50,10.0,Calm,Calm,-,N/A,,Overcast,0,2012-11-30 01:35:00
6:55 PM,51.8,48.2,88,29.50,7.0,Calm,Calm,-,N/A,,Drizzle,0,2012-11-30 01:55:00
7:15 PM,51.8,48.2,88,29.49,10.0,Calm,Calm,-,N/A,,Overcast,0,2012-11-30 02:15:00
7:35 PM,53.6,48.2,82,29.47,10.0,Calm,Calm,-,N/A,,Overcast,0,2012-11-30 02:35:00
7:55 PM,51.8,48.2,88,29.48,10.0,Calm,Calm,-,N/A,,Overcast,0,2012-11-30 02:55:00
8:15 PM,51.8,48.2,88,29.47,10.0,SE,3.5,-,0.01,,Overcast,140,2012-11-30 03:15:00
8:35 PM,51.8,48.2,88,29.46,10.0,SE,4.6,-,0.01,Rain,Light Rain,130,2012-11-30 03:35:00
8:55 PM,51.8,50.0,94,29.46,7.0,Calm,Calm,-,0.05,Rain,Light Rain,0,2012-11-30 03:55:00
9:15 PM,51.8,48.2,88,29.46,10.0,Calm,Calm,-,0.01,Rain,Light Rain,0,2012-11-30 04:15:00
9:35 PM,53.6,48.2,82,29.44,7.0,ESE,6.9,-,0.01,Rain,Rain,120,2012-11-30 04:35:00
9:55 PM,53.6,48.2,82,29.45,10.0,SSE,8.1,-,0.03,Rain,Rain,150,2012-11-30 04:55:00
10:15 PM,53.6,48.2,82,29.44,5.0,SE,11.5,20.7,0.06,Rain,Rain,130,2012-11-30 05:15:00
10:35 PM,53.6,48.2,82,29.44,10.0,SE,6.9,-,0.10,Rain,Light Rain,140,2012-11-30 05:35:00
10:55 PM,53.6,48.2,82,29.43,7.0,SE,10.4,-,0.17,Rain,Rain,140,2012-11-30 05:55:00
11:15 PM,53.6,48.2,82,29.43,7.0,SE,10.4,16.1,0.05,Rain,Rain,140,2012-11-30 06:15:00
11:35 PM,53.6,48.2,82,29.44,10.0,SE,8.1,-,0.07,Rain,Light Rain,140,2012-11-30 06:35:00
11:55 PM,53.6,48.2,82,29.43,7.0,SE,6.9,-,0.08,Rain,Rain,130,2012-11-30 06:55:00